User: anonymous   Login
Location: Deer Lake
(49.1830°N, 57.4330°W)
Time: 09:16:22
(UTC-02:-30)
Language:

Cosmos 1707 - Orbit

View from above orbital plane
View from above orbital plane
View from above satellite
View from above satellite

Ground track
Ground track

The orbit data is extracted from the following two-line orbital elements,

1 16326U 85113A   15153.55839298  .00000963  00000-0  55524-4 0  9993
2 16326 082.5135 219.8248 0011227 002.3893 357.7388 15.11191038604647
Epoch (UTC): 02 June 2015 13:24:05
Eccentricity: 0.0011227
inclination: 82.5135°
perigee height: 525 km
apogee height: 540 km
right ascension of ascending node: 219.8248°
argument of perigee: 2.3893°
revolutions per day: 15.11191038
mean anomaly at epoch: 357.7388°
orbit number at epoch: 60464

The dashed part of the orbit path shows where the satellite is in the earth's shadow,  

DLR